Regional Weather Roundup
Issued by NWS Newport/Morehead, NC

Current Version | Previous Version | Text Only | Print | Product List | Glossary On
Versions: 1 2 3 4 5 6 7 8 9 10 11 12 13 14 15 16 17 18 19 20 21 22 23 24 25 26 27 28 29 30 31 32 33 34 35 36 37 38 39 40 41 42 43 44 45 46 47 48 49 50
000
ASUS42 KMHX 200024
RWRMHX
WEATHER ROUNDUP FOR EASTERN NORTH CAROLINA
NATIONAL WEATHER SERVICE NEWPORT/MOREHEAD CITY NC
800 PM EDT SUN APR 19 2015

NOTE: "FAIR" INDICATES FEW OR NO CLOUDS BELOW 12,000 FEET
WITH NO SIGNIFICANT WEATHER AND/OR OBSTRUCTIONS TO VISIBILITY

NCZ015>017-031-032-045>047-102-103-200100-
NORTH COAST

CITY           SKY/WX    TMP DP  RH WIND       PRES   REMARKS
EDENTON        LGT RAIN  66  64  94 SE8       29.93S
ELIZABETH CITY RAIN      66  64  93 SE13G22   29.95S FOG
KITTY HAWK     DRIZZLE   61  60  94 SE9       29.95F
MANTEO         LGT RAIN  65  62  90 SE13      29.96F

$$

NCZ045>047-081-094-103-104-200100-
CENTRAL COAST

CITY           SKY/WX    TMP DP  RH WIND       PRES   REMARKS
FRISCO         CLOUDY    68  63  84 SE16      29.95S
SWANQUARTER      N/A     70 N/A N/A SE9G18    29.88S

$$

NCZ095-097-098-100-101-200100-
SOUTHERN COAST

CITY           SKY/WX    TMP DP  RH WIND       PRES   REMARKS
BEAUFORT       LGT RAIN  68  66  93 S14       29.92S
CEDAR ISLAND     N/A     70 N/A N/A SE23      29.94S
JACKSONVILLE   CLOUDY    69  66  90 S12       29.88F
PINEY ISLAND   LGT RAIN N/A N/A N/A SE16G22   29.91F
WILMINGTON     CLOUDY    70  67  90 SE13G23   29.87F


$$

NCZ011>013-027>030-043-044-078>080-089-090>093-098-200100-
COASTAL PLAIN

CITY           SKY/WX    TMP DP  RH WIND       PRES   REMARKS
AHOSKIE        RAIN      64  63  96 E5        29.91F
CLINTON        CLOUDY    69  69  99 SE6       29.85F
ELIZABETHTOWN  LGT RAIN  70  69  97 SE10      29.84F
GOLDSBORO      CLOUDY    68  67  96 SE3       29.84F
GREENVILLE     LGT RAIN  68  66  94 SE8       29.91F
HAVELOCK       LGT RAIN  69  66  90 S8G17     29.92S
KENANSVILLE    CLOUDY    68  66  94 SE7       29.87S
KINSTON        CLOUDY    68  68 100 SE9       29.88F
NEW BERN       LGT RAIN  69  66  90 S9        29.91F
RICHLANDS      CLOUDY    68  64  88 S8        29.87F
ROCKY MOUNT    CLOUDY    67  66  97 SE6       29.86F
WASHINGTON     LGT RAIN  67  65  96 SE6       29.90F
WHITEVILLE     HVY RAIN  71  69  93 S9        29.85S

$$

AMZ130-135-150-152-154-156-158-170-250-252-270-ANZ085-086-088-633-658-670-200100-
MARINE OBSERVATIONS

STATION/POSITION TIME  TEMP    WIND        PRES    WAVE   SWELL
                       AIR SEA DIR/SP/G            HT/PER HT/PER
                 (UTC) (F)     (DEG/KT/KT) (MB)    (FT/S) (FT/S)
CHESAPEAKE LIGHT 0000   58     110/ 24/ 25 1015.1
64 E VA BEACH    2350   65 59  130/ 14/ 17 1015.3    8/ 8   7/ 8
DUCK             0000   59 57  130/  9/ 11 1013.6
2 E DUCK         2311      57                N/A     4/ 7   2/13
10 NE DUCK       NOT AVBL
OREGON INLET     0000   61 62  120/  8/ 13 1014.5
HATTERAS CG      0000          140/ 14/ 19 1013.5
DIAMOND BUOY     2350   73 73  140/ 23/ 25 1013.8    7/ 6   2/ 9
CAPE LOOKOUT     0000   69     160/ 19/ 21 1012.9
BEAUFORT LAB     0000          170/ 11/ 14 1012.2
27 SE WRIGHTSVLE 0000   70 73  160/ 19/ 21   N/A
5 SE WRIGHTSVLE  0000   68 65  160/ 16/ 17 1011.3
225 S CAPE HAT   2350   72 75  160/ 12/ 14 1014.9    4/11   3/11
41 SE CHARLESTON 2350   75 75  150/ 17/ 21 1008.7    3/ 8   2/ 8

$$



USA.gov is the U.S. government's official web portal to all federal, state and local government web resources and services.